Home > Weather > Sevilla > Past weeks

Flag for Spain Weather for the Past 2 Weeks in Sevilla, Spain

Now
50 °F

Passing clouds.


Feels Like: 43 °F
Forecast: 46 / 60 °F
Wind: 22 mph from Northwest

Location: Sevilla / San Pablo

Current Time: Feb 14, 2016 at 8:20:07 PM

Latest Report: Feb 14, 2016 at 7:30 PM


Visibility: N/A

Pressure: 29.95 "Hg

Humidity: 58%

Dew point: 36 °F

Location of SevillaLocation

Historic Weather in Sevilla — Graph

°F

Sevilla Temperature Yesterday

Maximum temperature yesterday: 66 °F (at 4:00 PM)
Minimum temperature yesterday: 59 °F (at 4:30 AM)
Average temperature yesterday: 61 °F

High & Low Weather Summary for the Past Weeks

 TemperatureHumidityPressure
High70 °F (Feb 1, 3:30 PM)100% (Feb 1, 7:00 AM)30.60 "Hg (Feb 1, 7:00 AM)
Low41 °F (Feb 8, 7:00 AM)34% (Feb 14, 3:30 PM)29.86 "Hg (Feb 14, 2:30 PM)
Average57 °F78%30.27 "Hg
* Reported Jan 30 7:00 PM — Feb 14 7:00 PM, Sevilla, Weather by CustomWeather, © 2016

Note: Actual official high and low records may vary slightly from our data, if they occured in-between our weather recording intervals... More about our weather records

Advertising

Sevilla Weather History for the Previous 24 Hours

 ConditionsComfort  
Time TempWeatherWind HumidityBarometerVisibility
7:00 PM
Sun, Feb 14
50 °FPassing clouds.23 mph58%29.92 "HgN/A
6:30 PM50 °FPassing clouds.14 mph67%29.92 "HgN/A
6:00 PM48 °FScattered clouds.21 mph71%29.92 "HgN/A
5:30 PM54 °FPassing clouds.21 mph51%29.89 "HgN/A
5:00 PM57 °FScattered clouds.29 mph44%29.89 "HgN/A
4:30 PM57 °FSunny.23 mph51%29.89 "Hg10 mi
4:00 PM57 °FPassing clouds.23 mph55%29.89 "HgN/A
3:30 PM61 °FSunny.33 mph34%29.86 "Hg10 mi
3:00 PM61 °FPassing clouds.29 mph36%29.86 "HgN/A
2:30 PM63 °FPassing clouds.25 mph42%29.86 "HgN/A
2:00 PM61 °FScattered clouds.29 mph45%29.89 "HgN/A
1:30 PM61 °FPassing clouds.28 mph52%29.89 "HgN/A
1:00 PM61 °FPartly sunny.35 mph55%29.89 "HgN/A
12:30 PM61 °FPartly sunny.30 mph48%29.89 "HgN/A
12:00 PM61 °FScattered clouds.26 mph52%29.89 "HgN/A
11:30 AM59 °FScattered clouds.17 mph63%29.89 "HgN/A
11:00 AM61 °FScattered clouds.21 mph63%29.89 "HgN/A
10:30 AM59 °FScattered clouds.18 mph72%29.89 "HgN/A
10:00 AM59 °FScattered clouds.13 mph77%29.89 "HgN/A
9:30 AM57 °FPassing clouds.14 mph77%29.89 "HgN/A
8:30 AM55 °FScattered clouds.13 mph88%29.89 "HgN/A
8:00 AM55 °FPassing clouds.7 mph88%29.89 "HgN/A
7:30 AM57 °FPassing clouds.12 mph82%29.89 "HgN/A
7:00 AM55 °FPassing clouds.8 mph94%29.92 "HgN/A
6:30 AM57 °FPassing clouds.12 mph88%29.92 "HgN/A
6:00 AM57 °FPassing clouds.14 mph82%29.92 "HgN/A
5:30 AM57 °FPassing clouds.12 mph88%29.92 "HgN/A
5:00 AM57 °FPassing clouds.9 mph88%29.92 "HgN/A
4:30 AM59 °FPassing clouds.13 mph82%29.95 "HgN/A
4:00 AM59 °FPassing clouds.12 mph82%29.95 "HgN/A
3:30 AM59 °FPassing clouds.15 mph82%29.95 "HgN/A
1:00 AM61 °FPassing clouds.15 mph88%29.98 "HgN/A
12:30 AM61 °FPassing clouds.17 mph88%29.98 "HgN/A
12:00 AM61 °FPassing clouds.18 mph88%29.98 "HgN/A
11:30 PM
Sat, Feb 13
61 °FPassing clouds.16 mph88%30.01 "Hg6 mi
11:00 PM61 °FPartly cloudy.17 mph88%30.01 "HgN/A
10:30 PM61 °FPartly cloudy.16 mph88%30.01 "HgN/A
10:00 PM61 °FPartly cloudy.14 mph88%30.01 "HgN/A
9:45 PM61 °FPartly cloudy.16 mph88%30.01 "HgN/A
9:30 PM61 °FPassing clouds.16 mph88%30.01 "HgN/A
9:00 PM61 °FPassing clouds.12 mph88%30.01 "HgN/A
8:30 PM61 °FPassing clouds.12 mph88%30.01 "HgN/A
8:00 PM61 °FPartly cloudy.14 mph88%30.01 "HgN/A
Weather by CustomWeather, © 2016

See weather overviewHow to use our weather pages